Погода в Поисево

Россия / Республика Татарстан     55°32′15″N   53°29′34″E
темп.,
°C
ветер,
м/с
пор.,
м/с
влажн.,
%
обл.,
%
осадки,
мм/ч
давл.,
гПа
погр.,
м
15 апреля, чт
чт1500:00+9ю36825 0.0 102594
03:00+8ю33818 0.0 102524
06:00+9ю34730 0.0 102478
09:00+14ю46560 0.0 1023330
12:00+18ююз57440 0.0 1022809
15:00+20ююз56391 0.0 10201400
18:00+15ю36593 0.0 102093
21:00+13ююз33652 0.0 102033
16 апреля, пт
пт1600:00+11юз22650 0.0 101910
03:00+8ссв47852 0.0 1021124
06:00+7св61093100 0.0 1022395
09:00+10св687218 0.0 1023604
12:00+13св67626 0.0 1023846
15:00+13св676250 0.0 10231000
18:00+10св687193 0.0 1024682
21:00+8св4108029 0.0 1025453
17 апреля, сб
сб1700:00+5св411824 0.0 1026335
03:00+3св410830 0.0 1026249
06:00+3св410730 0.0 1027300
09:00+8св68520 0.0 1027640
12:00+11св67380 0.0 10261111
15:00+11св55350 0.0 10261268
18:00+9ссв35482 0.0 1025145
21:00+6ссв33620 0.0 102658
18 апреля, вс
вс1800:00+5ссв22665 0.0 102516
03:00+3с22710 0.0 102522
06:00+4ссз24710 0.0 1025132
09:00+8с45530 0.0 1024785
12:00+11с56448 0.0 10241620
15:00+9св885710 0.0 10251077
18:00+6св79435 0.0 10261028
21:00+3св612470 0.0 1028596
19 апреля, пн
пн1900:00+2всв612575 0.0 1029585
03:000всв612630 0.0 1032492
06:000всв711580 0.0 1033675
09:00+3в810350 0.0 10331358
12:00+6в79290 0.0 10331636
15:00+6в672748 0.0 10321751
18:00+5всв593469 0.0 1032601
21:00+2всв511440 0.0 1033328